Flag for China Weather past 2 weeks in Tianjin, Tianjin Municipality, China

Now
70 °F

Thunderstorms. Fog.


Feels Like: 70 °F
Forecast: 73 / 89 °F
Wind: 8 mph from Northwest

Location: Tianjin / Zhangguizhu

Current Time: Aug 24, 2014 at 3:05:57 AM

Latest Report: Aug 24, 2014 at 2:30 AM


Visibility: 1 mi

Pressure: 29.68 "Hg

Humidity: 88%

Dew point: 66 °F

Location of TianjinLocation

Historic Weather in Tianjin — Graph

°F

Tianjin temperature yesterday

Maximum temperature yesterday: 88 °F (at 11:30 AM)
Minimum temperature yesterday: 72 °F (at 8:30 PM)
Average temperature yesterday: 81 °F

Past Weeks' High & Low Weather Summary

 TemperatureHumidityPressure
High93 °F (Aug 11, 1:30 PM)94% (Aug 14, 12:00 AM)29.92 "Hg (Aug 14, 12:00 AM)
Low64 °F (Aug 14, 3:00 AM)21% (Aug 11, 1:30 PM)29.56 "Hg (Aug 10, 3:00 PM)
Average80 °F60%29.74 "Hg
* Reported Aug 9 2:00 AM — Aug 24 2:00 AM, Tianjin, Weather by CustomWeather, © 2014

Note: Actual official high and low records may vary slightly from our data, if they occured in-between our weather recording intervals... More about our weather records

Advertising

Tianjin weather history for previous 24 hours

 ConditionsComfort  
Time TempWeatherWind HumidityBarometerVisibility
2:00 AM
Aug 24
68 °FStrong thunderstorms. Fog.13 mph94%29.68 "Hg1 mi
1:30 AM70 °FStrong thunderstorms. Fog.15 mph88%29.71 "Hg1 mi
1:00 AM73 °FThunderstorms. Fog.6 mph74%29.68 "Hg3 mi
12:30 AM73 °FThunderstorms. Passing clouds.3 mph74%29.68 "Hg5 mi
12:00 AM73 °FClear.3 mph78%29.68 "Hg4 mi
11:30 PM
Aug 23
73 °FClear.1 mph78%29.68 "Hg5 mi
11:00 PM75 °FClear.1 mph69%29.68 "Hg10 mi
10:30 PM75 °FClear.1 mph65%29.68 "Hg10 mi
10:00 PM75 °FClear.3 mph65%29.68 "Hg5 mi
9:30 PM75 °FClear.3 mph69%29.68 "Hg5 mi
9:00 PM73 °FClear.1 mph74%29.68 "Hg4 mi
8:30 PM72 °FPassing clouds.3 mph78%29.68 "Hg5 mi
8:00 PM73 °FPassing clouds.8 mph74%29.68 "Hg4 mi
7:30 PM73 °FThunderstorms. Fog.8 mph83%29.65 "Hg3 mi
7:00 PM75 °FThunderstorms. Fog.13 mph74%29.65 "Hg3 mi
6:30 PM79 °FThunderstorms. Fog.8 mph65%29.65 "Hg2 mi
6:00 PM77 °FThunderstorms. Fog.6 mph79%29.65 "Hg2 mi
5:30 PM81 °FThunderstorms. Haze.1 mph66%29.62 "Hg2 mi
5:00 PM82 °FHaze.6 mph62%29.62 "Hg2 mi
4:30 PM82 °FThunderstorms. Scattered clouds.10 mph66%29.62 "Hg2 mi
4:00 PM86 °FThunderstorms. Haze.8 mph59%29.62 "Hg2 mi
3:30 PM88 °FHaze.6 mph55%29.62 "Hg2 mi
3:00 PM88 °FHaze.6 mph55%29.62 "Hg2 mi
2:30 PM88 °FHaze.8 mph55%29.62 "Hg2 mi
2:00 PM88 °FHaze.8 mph59%29.65 "Hg2 mi
1:30 PM88 °FHaze.6 mph55%29.65 "Hg2 mi
1:00 PM88 °FHaze.6 mph59%29.65 "Hg2 mi
12:30 PM88 °FHaze.6 mph55%29.68 "Hg2 mi
12:00 PM88 °FHaze.8 mph55%29.68 "Hg2 mi
11:30 AM88 °FHaze.6 mph55%29.71 "Hg2 mi
11:00 AM86 °FHaze.6 mph59%29.71 "Hg2 mi
10:30 AM84 °FHaze.3 mph66%29.71 "Hg1 mi
10:00 AM84 °FHaze.6 mph66%29.71 "Hg1 mi
9:30 AM82 °FHaze.6 mph70%29.71 "Hg1 mi
9:00 AM82 °FFog.6 mph70%29.71 "Hg1 mi
8:30 AM81 °FFog.8 mph74%29.71 "Hg1 mi
8:00 AM81 °FFog.6 mph70%29.71 "Hg1 mi
7:30 AM79 °FFog.6 mph74%29.71 "Hg1 mi
7:00 AM79 °FFog.6 mph74%29.71 "Hg1 mi
6:30 AM79 °FFog.3 mph74%29.71 "Hg1 mi
6:00 AM79 °FHaze.1 mph74%29.71 "Hg1 mi
5:30 AM79 °FHaze.3 mph74%29.71 "Hg1 mi
5:00 AM79 °FHaze.3 mph74%29.71 "Hg1 mi
4:30 AM79 °FHaze.3 mph74%29.71 "Hg1 mi
4:00 AM79 °FHaze.3 mph74%29.68 "Hg1 mi
3:30 AM79 °FHaze.3 mph74%29.71 "Hg1 mi
3:00 AM79 °FHaze.3 mph70%29.71 "Hg1 mi
Weather by CustomWeather, © 2014

See weather overviewHow to use our weather pages